RORVIK / RYUM current weather conditions

sailwx.info

Wind from 190 at 11 knots

Air temperature 4.0° C
Visibility: greater than 5.4 NM
Dewpoint 2.0° C
Present weather: Light rain showers.

Last reported at 2015-Jan-27 14:50 UTC.
Time now 2015-Jan-27 16:59 UTC

Location: N 64°50' E 011°09'.
View on Google Maps.

See reports from other nearby stations

  
Tides and Currents Weather Stations Pressure Air Temp Water Temp Dewpoint Dewpoint Depression Visibility Wind Speed Wind Dir Waves Ship Positions
date/time (UTC)wind fromknots sea level pressurealtimeterstation pressurevisibilityair tempwater tempwave heightnotes
2015-Jan-27 14:50 190 11 5.4 4.0 Light rain showers.
2015-Jan-27 13:50 230 6 5.4 3.0 Light rain showers.
2015-Jan-27 12:50 240 11 5.4 3.0 Light rain showers.
2015-Jan-27 12:20 5.4 1.0 Light rain showers.
2015-Jan-27 11:50 5.4 1.0 Showers in the vicinity.
2015-Jan-27 11:20 280 8 5.4 1.0 Showers in the vicinity.
2015-Jan-27 10:50 280 16 5.4 2.0 Showers in the vicinity.
2015-Jan-27 10:20 190 11 5.4 2.0 Light rain.
2015-Jan-27 09:50 160 11 3.2 2.0 Light drizzle.
2015-Jan-27 09:20 160 11 2.7 2.0 Rain showers.
2015-Jan-27 08:50 190 11 2.7 2.0 Rain showers.
2015-Jan-27 08:20 220 9 5.4 2.0 Light rain showers.
2015-Jan-27 07:50 250 8 5.4 2.0 Rain showers.
2015-Jan-27 07:20 230 13 5.4 3.0 Light rain showers.
2015-Jan-27 06:20 230 11 5.4 2.0
2015-Jan-27 05:50 270 4 5.4 1.0 Showers in the vicinity.
2015-Jan-27 05:20 250 6 5.4 2.0 Light snow showers.
2015-Jan-27 04:50 250 11 5.4 2.0 Showers in the vicinity.
2015-Jan-26 21:20 260 15 5.4 3.0 Showers in the vicinity.
2015-Jan-26 20:50 220 20 5.4 3.0 Showers in the vicinity.
2015-Jan-26 18:50 220 17 5.4 3.0 Showers in the vicinity.
2015-Jan-26 17:50 200 18 5.4 4.0 Showers in the vicinity.
2015-Jan-26 16:50 210 10 5.4 4.0 Light rain showers.
2015-Jan-26 16:20 200 9 5.4 3.0 Showers in the vicinity.
2015-Jan-26 15:50 210 19 5.4 2.0 Rain showers.
2015-Jan-26 14:50 230 25 5.4 4.0 Showers in the vicinity.
2015-Jan-26 13:50 210 18 5.4 5.0 Showers in the vicinity.
2015-Jan-26 13:20 210 16 5.4 4.0 Showers in the vicinity.
2015-Jan-26 12:50 220 14 5.4 4.0 Showers in the vicinity.
2015-Jan-26 12:20 230 15 5.4 4.0 Showers in the vicinity.
2015-Jan-26 11:50 220 17 5.4 4.0 Showers in the vicinity.
2015-Jan-26 11:20 210 19 gusting 29 2.2 4.0 Rain showers.
2015-Jan-26 10:20 220 12 5.4 4.0 Showers in the vicinity.
2015-Jan-26 09:50 210 18 5.4 4.0 Showers in the vicinity.
2015-Jan-26 09:20 200 17 5.4 4.0 Showers in the vicinity.
2015-Jan-26 08:50 210 16 5.4 4.0 Showers in the vicinity.
2015-Jan-26 08:20 220 20 gusting 31 5.4 4.0 Rain showers.
2015-Jan-26 07:50 210 20 5.4 5.0 Showers in the vicinity.
2015-Jan-26 06:50 190 11 5.4 5.0 Showers in the vicinity.
2015-Jan-26 06:20 190 15 5.4 5.0
2015-Jan-26 05:50 200 19 5.4 5.0
2015-Jan-26 05:20 200 20 5.4 5.0 Showers in the vicinity.
2015-Jan-26 04:50 210 23 5.4 5.0 Light rain showers.
2015-Jan-25 20:50 130 17 5.4 1.0 Light rain showers.
2015-Jan-25 20:20 130 17 gusting 27 5.4 1.0 Light rain showers.
2015-Jan-25 19:50 130 17 5.4 1.0
2015-Jan-25 19:20 140 20 5.4 1.0 Light snow showers.
2015-Jan-25 18:50 150 19 5.4 1.0 Light snow showers.
2015-Jan-25 18:20 150 17 5.4 1.0
2015-Jan-25 17:50 140 18 gusting 27 5.4 2.0
2015-Jan-25 16:50 140 16 2.0